Погода в Кочетово

Россия / Республика Тыва     51°20′41″N   94°03′46″E
темп.,
°C
ветер,
м/с
пор.,
м/с
влажн.,
%
обл.,
%
осадки,
мм/ч
давл.,
гПа
погр.,
м
19 сентября, вс
вс1901:00+10юз22454 0.0 100914
04:00+9ююз224412 0.0 101013
07:00+9ю11482 0.0 101011
10:00+16ссв21350 0.0 1009368
13:00+21с24278 0.0 10061477
16:00+23юз132374 0.0 10042179
19:00+15ю2240100 0.0 100416
22:00+13ююз324075 0.0 100423
20 сентября, пн
пн2001:00+11ююз32440 0.0 100320
04:00+10юз22460 0.0 100213
07:00+10ююз22475 0.0 100219
10:00+18ссз1530100 0.0 998800
13:00+13зюз5115733 0.3 10041045
16:00+6ссз236335 0.1 1013472
19:00+4ссз11665 0.1 101511
22:00+2ююв21680 0.0 101615
21 сентября, вт
вт2101:00+2юв005850 0.0 101511
04:00+1юз1171100 0.0 101510
07:00+1юз117367 0.0 101514
10:00+6с115332 0.0 1013659
13:00+10ссв21410 0.0 1009995
16:00+11с233692 0.0 10071654
19:00+7зсз334984 0.0 101069
22:00+3сз4775100 0.1 1016858
22 сентября, ср
ср2201:000юз1297100 4.3 1018147
04:00+1зюз2288100 0.5 101942
07:000зюз2286100 0.6 102050
10:00+3ссз225816 0.0 1020975
13:00+5зсз124619 0.0 10201437
16:00+6ю124029 0.0 10181700
19:00+1ю22645 0.0 102112
22:00−1ююз227179 0.0 102321
23 сентября, чт
чт2301:00−2ююз227187 0.0 102215
04:00−1юв1169100 0.0 102110
07:00−2ююв1173100 0.0 102210
10:00+2св2158100 0.0 1019374
13:00+6св2148100 0.0 1017664
16:00+8св214229 0.0 1015871
19:00+3юв1160100 0.0 101711
22:00+2ююз2269100 0.0 101816